Location: Newark
(44.3681°N, 100.3364°W)
Time: 20:26:36
(UTC+00:00)

S-56A Canister/Altair - Pass Details

Date: 04 March 2020
Orbit: 634 x 2498 km, 38.9° (Epoch: 07 April)

Event Time Altitude Azimuth Distance (km) Brightness Sun altitude
Rises 19:22:08 0° 281° (W) 5,731 12.0 39.2°
Reaches altitude 10° 19:25:47 10° 276° (W) 4,889 11.8 39.1°
Maximum altitude 19:39:28 51° 207° (SSW) 2,953 12.5 38.5°
Drops below altitude 10° 19:53:09 10° 138° (SE) 4,872 12.1 37.8°
Sets 19:56:47 0° 133° (SE) 5,709 12.2 37.6°
